This demonstration page uses our WeatherBlox Daily Observations layout. Learn more.

Left ArrowRight Arrow

41.55636, -103.73856

Hourly Observations for August 9, 2021

Temp ( °F °C ) Dew Point ( °F °C ) Humidity (%) Winds ( mph kmh ) Pressure ( in mb ) Visibility ( mi km ) Precip ( " mm )
12:58 am 00:58 Clear 74 23.3 37 3 27 27 SSW 15 24 29.72 1006 10 16 0.00 0.00
1:58 am 01:58 Clear 72 22.4 38 3.3 29 29 SW 12 19 29.72 1006 10 16 0.00 0.00
2:58 am 02:58 Clear 71 21.5 39 4.1 32 32 WSW 10 17 29.70 1006 10 16 0.00 0.00
3:58 am 03:58 Clear 71 21.7 38 3.3 30 30 NW 6 9 29.72 1007 10 16 0.00 0.00
4:58 am 04:58 Clear 65 18.3 36 2.3 35 35 WSW 7 11 29.76 1008 10 16 0.00 0.00
5:58 am 05:58 Sunny 65 18.5 35 1.7 33 33 W 13 20 29.81 1009 10 16 0.00 0.00
6:58 am 06:58 Sunny 61 16 46 7.6 58 58 WNW 15 24 29.85 1011 7 11 0.00 0.00
7:58 am 07:58 Sunny 62 16.4 46 7.7 57 57 NW 16 26 29.86 1011 9 14 0.00 0.00
8:58 am 08:58 Sunny 64 18 45 7.3 50 50 NW 15 24 29.85 1011 9 14 0.00 0.00
9:58 am 09:58 Mostly Sunny 67 19.7 45 7.1 44 44 NW 13 20 29.87 1011 9 14 0.00 0.00
10:58 am 10:58 Sunny 72 22.2 44 6.8 37 37 NW 8 13 29.87 1011 9 14 0.00 0.00
11:58 am 11:58 Sunny 76 24.6 44 6.8 32 32 NNW 6 9 29.84 1011 9 14 0.00 0.00
12:58 pm 12:58 Sunny 81 27.4 42 5.7 25 25 Calm 29.82 1010 10 16 0.00 0.00
1:58 pm 13:58 Sunny 87 30.4 45 7.4 24 24 E 7 11 29.79 1009 9 14 0.00 0.00
2:58 pm 14:58 Partly Cloudy 82 27.5 47 8.2 30 30 E 13 20 29.78 1009 10 16 0.00 0.00
3:58 pm 15:58 Sunny 84 28.9 46 7.5 26 26 N 10 17 29.80 1009 10 16 0.00 0.00
4:58 pm 16:58 Sunny 86 30 40 4.5 20 20 NNE 12 19 29.78 1009 10 16 0.00 0.00
5:58 pm 17:58 Partly Cloudy 84 28.8 41 5.1 22 22 ENE 16 26 29.81 1010 10 16 0.00 0.00
6:58 pm 18:58 Partly Cloudy 81 27 45 7.2 28 28 ENE 18 30 29.84 1011 10 16 0.00 0.00
7:58 pm 19:58 Sunny 76 24.3 44 6.4 32 32 ESE 15 24 29.84 1010 10 16 0.00 0.00
8:58 pm 20:58 Clear 73 23 43 6.2 34 34 SE 12 19 29.85 1011 10 16 0.00 0.00
9:58 pm 21:58 Mostly Clear 70 20.9 45 7.1 41 41 N 8 13 29.91 1013 10 16 0.00 0.00
10:58 pm 22:58 Mostly Cloudy 70 20.9 45 7.3 42 42 E 8 13 29.89 1012 10 16 0.00 0.00
11:58 pm 23:58 Clear 69 20.7 44 6.9 41 41 SSE 10 17 29.87 1012 10 16 0.00 0.00

Powered by AerisWeather